Weather History for KSHV - September, 2013

Change the Weather History Date:

Monday, September 30, 2013

  Actual Average Record
Temperature  
Mean Temperature 79 °F 72 °F  
Max Temperature 85 °F 83 °F 99 °F (1953)
Min Temperature 72 °F 60 °F 42 °F (1984)
Degree Days  
Heating Degree Days 0 1  
Month to date heating degree days 0 4  
Since 1 July heating degree days 0 6  
Cooling Degree Days 14 7  
Month to date cooling degree days 516 363  
Year to date cooling degree days 2561 2325  
Growing Degree Days 28 (Base 50)    
Moisture  
Dew Point 71 °F    
Average Humidity 77    
Maximum Humidity 93    
Minimum Humidity 61    
Precipitation  
Precipitation 0.01 in 0.13 in 1.66 in (2012)
Month to date precipitation 9.31 3.16  
Year to date precipitation 36.27 37.15  
Snow  
Snow 0.00 in - - ()
Month to date snowfall 0.0  
Since 1 July snowfall 0.0  
Since 1 September snowfall 0.0  
Snow Depth 0.00 in    
Sea Level Pressure  
Sea Level Pressure 29.88 in    
Wind  
Wind Speed 7 mph (SSE)    
Max Wind Speed 22 mph    
Max Gust Speed 26 mph    
Visibility 9 miles    
Events Rain    
T = Trace of Precipitation, MM = Missing Value Source: NWS Daily Summary

Daily Weather History Graph

Daily Weather History Graph

Search for Another Location

Airport or City:

Trip Planner

Search our weather history database for the weather conditions in past years. The results will help you decide how hot, cold, wet, or windy it might be!

Date:

Astronomy

Sep. 30, 2013 Rise Set
Actual Time 7:08 AM CDT 7:00 PM CDT
Civil Twilight 6:44 AM CDT 7:25 PM CDT
Nautical Twilight 6:15 AM CDT 7:53 PM CDT
Astronomical Twilight 5:47 AM CDT 8:22 PM CDT
Moon 2:59 AM CDT (9/30) 4:21 PM CDT (9/30)
Length of Visible Light 12h 41m
Length of Day
11h 52m
Waning Crescent, 19% of the Moon is Illuminated
Sep 30
Waning Crescent
Oct 4
New
Oct 11
First Quarter
Oct 18
Full
Oct 26
Last Quarter

Hourly Weather History & Observations

Time (CDT) Temp. Heat Index Dew Point Humidity Pressure Visibility Wind Dir Wind Speed Gust Speed Precip Events Conditions
12:44 AM 73.4 °F - 71.6 °F 94% 29.91 in 6.0 mi South 6.9 mph - 0.00 in Rain Light Rain
12:56 AM 73.9 °F - 72.0 °F 93% 29.90 in 4.0 mi SSE 9.2 mph - 0.02 in Rain Light Rain
1:06 AM 73.4 °F - 71.6 °F 94% 29.90 in 6.0 mi SSE 10.4 mph 16.1 mph 0.01 in Rain Light Rain
1:26 AM 73.4 °F - 71.6 °F 94% 29.90 in 10.0 mi South 6.9 mph - 0.01 in   Overcast
1:56 AM 73.9 °F - 72.0 °F 93% 29.89 in 10.0 mi South 5.8 mph - 0.01 in   Overcast
2:56 AM 73.0 °F - 72.0 °F 96% 29.89 in 8.0 mi South 5.8 mph - 0.00 in Rain Light Rain
3:56 AM 73.0 °F - 72.0 °F 96% 29.88 in 10.0 mi South 6.9 mph - 0.00 in   Overcast
4:56 AM 73.0 °F - 72.0 °F 96% 29.88 in 10.0 mi SSW 4.6 mph - 0.00 in   Overcast
5:56 AM 73.0 °F - 72.0 °F 96% 29.88 in 10.0 mi South 3.5 mph - N/A   Overcast
6:08 AM 73.4 °F - 71.6 °F 94% 29.89 in 6.0 mi South 3.5 mph - N/A   Overcast
6:52 AM 73.4 °F - 71.6 °F 94% 29.88 in 9.0 mi SSE 3.5 mph - N/A   Overcast
6:56 AM 73.0 °F - 71.1 °F 93% 29.87 in 9.0 mi SSE 4.6 mph - N/A   Overcast
7:05 AM 71.6 °F - 71.6 °F 100% 29.88 in 6.0 mi South 4.6 mph - N/A   Overcast
7:14 AM 73.4 °F - 71.6 °F 94% 29.89 in 6.0 mi South 3.5 mph - N/A   Overcast
7:56 AM 73.0 °F - 72.0 °F 96% 29.88 in 3.0 mi Calm Calm - N/A   Overcast
8:56 AM 73.0 °F - 72.0 °F 96% 29.90 in 7.0 mi South 4.6 mph - N/A   Overcast
9:14 AM 73.4 °F - 71.6 °F 94% 29.91 in 7.0 mi SSE 9.2 mph - N/A   Overcast
9:56 AM 73.9 °F - 72.0 °F 93% 29.91 in 7.0 mi SSE 5.8 mph - N/A   Overcast
10:09 AM 73.4 °F - 71.6 °F 94% 29.92 in 10.0 mi SSE 9.2 mph - N/A   Overcast
10:56 AM 75.9 °F - 72.0 °F 87% 29.91 in 10.0 mi SSE 6.9 mph - N/A   Overcast
11:06 AM 75.2 °F - 71.6 °F 89% 29.92 in 10.0 mi SSE 5.8 mph - N/A   Overcast
11:43 AM 78.8 °F - 71.6 °F 78% 29.91 in 10.0 mi SSE 5.8 mph - N/A   Overcast
11:56 AM 78.1 °F - 72.0 °F 81% 29.90 in 10.0 mi SSE 6.9 mph - N/A   Overcast
12:56 PM 81.0 °F 85.2 °F 72.0 °F 74% 29.89 in 10.0 mi South 15.0 mph - N/A   Overcast
1:56 PM 80.1 °F 83.6 °F 71.1 °F 74% 29.87 in 10.0 mi SSE 19.6 mph 23.0 mph 0.00 in Rain Light Rain
2:08 PM 80.6 °F 84.6 °F 71.6 °F 74% 29.88 in 10.0 mi SSE 19.6 mph - 0.00 in Rain Light Rain
2:56 PM 82.0 °F 86.3 °F 71.1 °F 69% 29.86 in 10.0 mi South 16.1 mph 25.3 mph 0.00 in   Overcast
3:56 PM 82.0 °F 86.3 °F 71.1 °F 69% 29.83 in 10.0 mi SSE 12.7 mph 19.6 mph N/A   Mostly Cloudy
4:56 PM 84.0 °F 87.8 °F 69.1 °F 61% 29.83 in 10.0 mi South 13.8 mph - N/A   Mostly Cloudy
5:56 PM 82.9 °F 86.5 °F 69.1 °F 63% 29.84 in 10.0 mi SSE 13.8 mph - N/A   Mostly Cloudy
6:56 PM 80.1 °F 83.2 °F 70.0 °F 71% 29.84 in 10.0 mi SE 5.8 mph - N/A   Scattered Clouds
7:56 PM 77.0 °F - 71.1 °F 82% 29.86 in 10.0 mi SSE 3.5 mph - N/A   Scattered Clouds
8:56 PM 73.9 °F - 71.1 °F 91% 29.87 in 10.0 mi Calm Calm - N/A   Scattered Clouds
9:16 PM 75.2 °F - 71.6 °F 89% 29.89 in 10.0 mi Calm Calm - N/A   Mostly Cloudy
9:29 PM 75.2 °F - 71.6 °F 89% 29.89 in 10.0 mi ESE 3.5 mph - N/A   Mostly Cloudy
9:56 PM 75.0 °F - 71.1 °F 87% 29.89 in 10.0 mi ESE 3.5 mph - N/A   Scattered Clouds
10:56 PM 73.9 °F - 70.0 °F 87% 29.89 in 10.0 mi SE 5.8 mph - N/A   Clear
11:56 PM 73.0 °F - 70.0 °F 90% 29.88 in 10.0 mi SSE 6.9 mph - N/A   Clear